Simultaneous Nadir Overpasses (SNOs) Predictions

Prediction of SNOs between GOES-15 and TERRA Satellite Orbit:

Table of predicted SNOs for the next 14.0 days since TLE Epoch: 11/21/2025
Index Date Time (GOES-15) GOES-15 Lat,Lon TERRA Lat,Lon Distance(km) Time Diff (sec)
1 11/22/2025 05:02:51 0.68, 61.61 0.61, 61.90 33.39 80
2 11/24/2025 17:00:08 -0.68, 61.68 -0.66, 61.87 21.53 80
3 11/27/2025 05:02:37 0.67, 61.56 0.60, 61.85 33.68 80
4 11/29/2025 17:02:34 -0.65, 61.62 -0.61, 61.81 21.63 80
5 12/02/2025 05:02:22 0.64, 61.52 0.55, 61.80 32.27 80
6 12/04/2025 17:02:17 -0.62, 61.60 -0.58, 61.77 18.87 80
